Location: Zagreb
(45.8000°N, 16.0000°E)
Time: 19:28:01
(UTC+02:00)

Tiros 1 despin weight - Pass Details

Date: 12 August 2022
Orbit: 591 x 638 km, 48.2° (Epoch: 06 October)

Event Time Altitude Azimuth Distance (km) Brightness Sun altitude
Rises 13:15:22 0° 235° (SW) 2,853 ? 58.9°
Reaches altitude 10° 13:17:42 10° 232° (SW) 1,944 ? 58.9°
Maximum altitude 13:22:04 58° 153° (SSE) 698 ? 58.8°
Drops below altitude 10° 13:26:24 10° 75° (ENE) 1,928 ? 58.6°
Sets 13:28:42 0° 71° (ENE) 2,827 ? 58.5°
